This is the latest recevied weather packets stored in our database for station/object K7YVO. If no packets are shown the sender has not sent any weather packets the latest 10 day(s).
| Time | Temp. | Humidity | Pressure | Rain* | Wind** | Luminosity | Snow |
|---|---|---|---|---|---|---|---|
| 1777864958 | 27.22° C | 39% | 1009.7 hPa | 0 mm | - | 2 W/m² | - |
| 1777864654 | 27.22° C | 39% | 1009.5 hPa | 0 mm | - | 3 W/m² | - |
| 1777864352 | 27.22° C | 39% | 1009.5 hPa | 0 mm | - | 5 W/m² | - |
| 1777864047 | 27.78° C | 39% | 1009.7 hPa | 0 mm | - | 7 W/m² | - |
| 1777863745 | 27.78° C | 38% | 1009.7 hPa | 0 mm | - | 10 W/m² | - |
| 1777863441 | 28.33° C | 37% | 1009.6 hPa | 0 mm | - | 12 W/m² | - |
| 1777863137 | 28.89° C | 37% | 1009.5 hPa | 0 mm | - | 16 W/m² | - |
| 1777862835 | 29.44° C | 36% | 1009.6 hPa | 0 mm | - | 20 W/m² | - |
| 1777862531 | 29.44° C | 36% | 1009.5 hPa | 0 mm | - | 24 W/m² | - |
| 1777862228 | 29.44° C | 36% | 1009.5 hPa | 0 mm | - | 28 W/m² | - |
| 1777861924 | 29.44° C | 36% | 1009.5 hPa | 0 mm | - | 32 W/m² | - |
| 1777861620 | 29.44° C | 36% | 1009.4 hPa | 0 mm | - | 28 W/m² | - |
| 1777861316 | 30° C | 35% | 1009.3 hPa | 0 mm | - | 30 W/m² | - |
| 1777861015 | 30.56° C | 34% | 1009.5 hPa | 0 mm | - | 52 W/m² | - |
| 1777860710 | 31.11° C | 34% | 1009.5 hPa | 0 mm | - | 59 W/m² | - |
| 1777860408 | 31.67° C | 33% | 1009.5 hPa | 0 mm | - | 67 W/m² | - |
| 1777860103 | 31.67° C | 32% | 1009.6 hPa | 0 mm | - | 72 W/m² | - |
| 1777859801 | 31.67° C | 33% | 1009.6 hPa | 0 mm | - | 82 W/m² | - |
| 1777859497 | 31.11° C | 32% | 1009.5 hPa | 0 mm | - | 87 W/m² | - |
| 1777859192 | 32.22° C | 32% | 1009.7 hPa | 0 mm | - | 86 W/m² | - |
| 1777858890 | 31.67° C | 31% | 1009.4 hPa | 0 mm | - | 90 W/m² | - |
| 1777858587 | 31.11° C | 32% | 1009.8 hPa | 0 mm | - | 105 W/m² | - |
| 1777858284 | 31.67° C | 33% | 1009.7 hPa | 0 mm | - | 96 W/m² | - |
| 1777857981 | 32.22° C | 31% | 1009.6 hPa | 0 mm | - | 99 W/m² | - |
| 1777857679 | 32.22° C | 31% | 1009.6 hPa | 0 mm | - | 127 W/m² | - |
* Rain latest hour (hover to see other rain measurements)
** Current wind speed in m/s (hover to see current wind gust speed)